Regional Weather Roundup
Issued by NWS

Home | Current Version | Previous Version | Graphics & Text | Print | Product List | Glossary On
Versions: 1 2 3 4 5 6 7 8 9 10 11 12 13 14 15 16 17 18 19 20 21 22 23 24 25 26 27 28 29 30 31 32 33 34 35 36 37 38 39 40 41 42 43 44 45 46 47 48 49 50
000
ASUS43 KBIS 300202
RWRND

NORTH DAKOTA REGIONAL WEATHER ROUNDUP
NATIONAL WEATHER SERVICE BISMARCK ND
900 PM CDT MON MAY 29 2017

NOTE: "FAIR" INDICATES FEW OR NO CLOUDS BELOW 12,000 FEET WITH NO
SIGNIFICANT WEATHER AND/OR OBSTRUCTIONS TO VISIBILITY.


NDZ001>003-009>011-017-300300-
NORTHWEST NORTH DAKOTA

CITY           SKY/WX    TMP DP  RH WIND       PRES   REMARKS
WILLISTON      FAIR      65  28  24 N10       30.04F
MINOT          FAIR      55  39  54 N9        29.99R
MINOT AFB      CLEAR     56  40  55 NE7       29.98R
$$

NDZ018>021-031>035-040>046-300300-
SOUTHWEST NORTH DAKOTA

CITY           SKY/WX    TMP DP  RH WIND       PRES   REMARKS
BISMARCK       MOCLDY    62  36  37 NW10      29.99S
DICKINSON      FAIR      59  28  30 N9        30.04R
GARRISON         N/A     57  31  37 NW13      29.98S
HETTINGER ARPT CLEAR     58  31  35 NW12      30.07R
$$

NDZ004>008-012>016-024-026-027-054-300300-
NORTHEAST NORTH DAKOTA

CITY           SKY/WX    TMP DP  RH WIND       PRES   REMARKS
GRAND FORKS    CLOUDY    52  44  74 N14       29.89S
GRND FRKS AFB  CLOUDY    50  44  80 N10G16    29.90R
DEVILS LAKE    CLOUDY    52  44  74 NW13      29.93S
$$

NDZ022-023-025-028>030-036>039-047>053-300300-
SOUTHEAST NORTH DAKOTA

CITY           SKY/WX    TMP DP  RH WIND       PRES   REMARKS
FARGO          CLOUDY    54  46  74 NW13      29.89F
JAMESTOWN      CLOUDY    55  42  61 NW14      29.93S
$$





USA.gov is the U.S. government's official web portal to all federal, state and local government web resources and services.